Weather History for Wautoma, WI

Change the Weather History Date:

Wednesday, February 13, 2013

  Actual Average (KPCZ) Record (KPCZ)
Temperature  
Mean Temperature 22 °F -  
Max Temperature 37 °F 29 °F 51 °F (2011)
Min Temperature 8 °F 10 °F -13 °F (1955)
Degree Days  
Heating Degree Days 42    
Moisture  
Dew Point 18 °F    
Average Humidity 79    
Maximum Humidity 96    
Minimum Humidity 55    
Precipitation  
Precipitation 0.00 in - - ()
Sea Level Pressure  
Sea Level Pressure 29.74 in    
Wind  
Wind Speed 0 mph (North)    
Max Wind Speed 0 mph    
Max Gust Speed -    
Visibility 8 miles    
Events      
Averages and records for this station are not official NWS values.
T = Trace of Precipitation, MM = Missing Value Source: NWS Daily Summary

Daily Weather History Graph

Daily Weather History Graph

Search for Another Location

Airport:

Trip Planner

Search our weather history database for the weather conditions in past years. The results will help you decide how hot, cold, wet, or windy it might be!

Date:

Astronomy

Feb. 13, 2013 Rise Set
Actual Time 6:58 AM CST 5:24 PM CST
Civil Twilight 6:29 AM CST 5:54 PM CST
Nautical Twilight 5:55 AM CST 6:28 PM CST
Astronomical Twilight 5:21 AM CST 7:01 PM CST
Moon 8:18 AM CST (2/13) 9:38 PM CST (2/13)
Length of Visible Light 11h 25m
Length of Day
10h 25m
Waxing Crescent, 14% of the Moon is Illuminated
Feb 13
Waxing Crescent
Feb 17
First Quarter
Feb 25
Full
Mar 4
Last Quarter
Mar 11
New

Hourly Weather History & Observations

Time (CST) Temp. Dew Point Humidity Pressure Visibility Wind Dir Wind Speed Gust Speed Precip Events Conditions
12:30 AM 10.4 °F 8.6 °F 92% 29.81 in 1.8 mi Calm Calm - N/A   Clear
12:41 AM 10.4 °F 6.8 °F 85% 29.81 in 4.0 mi Calm Calm - N/A   Clear
12:56 AM 11.1 °F 9.1 °F 92% 29.84 in 6.0 mi Calm Calm - N/A   Clear
1:56 AM 18.1 °F 16.2 °F 92% 29.82 in 7.0 mi Calm Calm - N/A   Clear
2:56 AM 13.1 °F 10.0 °F 88% 29.82 in 4.0 mi Calm Calm - N/A   Clear
3:56 AM 10.0 °F 7.2 °F 88% 29.80 in 8.0 mi Calm Calm - N/A   Clear
4:56 AM 9.1 °F 6.1 °F 87% 29.78 in 7.0 mi Calm Calm - N/A   Clear
5:56 AM 8.6 °F 5.0 °F 85% 29.74 in 8.0 mi Calm Calm - N/A   Clear
6:56 AM 10.0 °F 7.2 °F 88% 29.78 in 8.0 mi Calm Calm - N/A   Mostly Cloudy
7:56 AM 14.0 °F 12.0 °F 92% 29.76 in 5.0 mi Calm Calm - N/A   Mostly Cloudy
8:56 AM 20.1 °F 18.1 °F 92% 29.75 in 5.0 mi Calm Calm - N/A   Mostly Cloudy
9:56 AM 24.1 °F 23.0 °F 96% 29.75 in 7.0 mi Calm Calm - N/A   Mostly Cloudy
10:56 AM 29.1 °F 22.1 °F 75% 29.74 in 10.0 mi Calm Calm - N/A   Mostly Cloudy
11:56 AM 32.0 °F 21.0 °F 64% 29.72 in 10.0 mi Calm Calm - N/A   Overcast
12:56 PM 34.0 °F 22.1 °F 62% 29.70 in 10.0 mi Calm Calm - N/A   Mostly Cloudy
1:56 PM 36.9 °F 24.1 °F 60% 29.69 in 10.0 mi Calm Calm - N/A   Overcast
2:56 PM 37.9 °F 23.0 °F 55% 29.70 in 10.0 mi Calm Calm - N/A   Overcast
3:56 PM 36.9 °F 24.1 °F 60% 29.70 in 10.0 mi Calm Calm - N/A   Overcast
4:56 PM 36.0 °F 25.2 °F 65% 29.70 in 10.0 mi Calm Calm - N/A   Mostly Cloudy
5:56 PM 33.8 °F 24.8 °F 70% 29.68 in 10.0 mi Calm Calm - N/A   Overcast
6:56 PM 34.0 °F 24.1 °F 67% 29.71 in 10.0 mi Calm Calm - N/A   Mostly Cloudy
7:56 PM 31.1 °F 24.1 °F 75% 29.70 in 10.0 mi Calm Calm - N/A   Overcast
8:56 PM 30.2 °F 24.8 °F 80% 29.67 in 10.0 mi Calm Calm - N/A   Overcast
9:56 PM 32.0 °F 25.2 °F 76% 29.68 in 10.0 mi Calm Calm - N/A   Overcast
10:56 PM 32.0 °F 25.2 °F 76% 29.67 in 10.0 mi Calm Calm - N/A   Overcast
11:56 PM 30.2 °F 24.8 °F 80% 29.63 in 10.0 mi Calm Calm - N/A   Overcast